World > North America > United States > New York

Hourly Stafford, NY Regional Weather

Feedback E-mail the Weather

Latest News

Stafford, NY Weather Maps

°F °C°F °C
Stafford Weather Map
UTC Time: 5/21/2022, 02:59
Your Time:

Stafford, NY Regional Weather

Expires:202205210300;;302459
ASUS41 KALY 210210
RWRALY

NEW YORK STATE HOURLY WEATHER ROUNDUP
NATIONAL WEATHER SERVICE ALBANY NY
1000 PM EDT FRI MAY 20 2022

NOTE: "FAIR" INDICATES FEW OR NO CLOUDS BELOW 12,000 FEET WITH NO
SIGNIFICANT WEATHER AND/OR NO OBSTRUCTIONS TO VISIBILITY.


NYZ001>004-010>016-019>021-085-210300-
WEST

  
CITY           SKY/WX    TMP DP  RH WIND       PRES   REMARKS
NIAGARA FALLS  PTCLDY    74  65  73 S12       29.72R                  
BUFFALO        MOCLDY    73  65  75 SW10      29.74R                  
DUNKIRK        MOCLDY    76  67  73 SW8       29.75R                  
JAMESTOWN      MOCLDY    70  65  84 S10       29.82R                  
WELLSVILLE     MOCLDY    70  63  78 S13       29.86R                  
ROCHESTER      MOCLDY    72  63  73 CALM      29.77R                  
PENN YAN       PTCLDY    70  62  76 S6        29.80R                  
$$

             KEY
       WCI = WIND CHILL INDEX
       VSB = VISIBILITY
       HX  = HEAT INDEX
$$
  

SKY/WX - Weather  TMP - Temperature  DP - Dew Point  RH - Humidity
WIND - Wind Direction/Speed PRES - Barometric Pressure VSB - Visibility
WCI - Wind Chill Index E13G22 Wind - East Wind 13 mph/Gusts of 22 mph

Trending Headlines

Stafford Radar Loop



Stafford Quick Facts


National Two Day Weather Forecast


E-mail the Stafford Weather Forecast

Voice your opinion or tell us about page issues...